Location: Gro� Glienicke
(52.4675°N, 13.1079°E)
Time: 18:03:13
(UTC+00:00)

Cosmos 2228 Rocket - Pass Details

Date: 06 July 2020
Orbit: 617 x 653 km, 82.5° (Epoch: 12 August)

Event Time Altitude Azimuth Distance (km) Brightness Sun altitude
Rises 23:11:50 0° 349° (NNW) 2,991 8.3 -15.0°
Reaches altitude 10° 23:14:06 10° 350° (N) 2,073 7.1 -15.0°
Maximum altitude 23:18:44 88° 78° (ENE) 659 3.1 -15.0°
Enters shadow 23:21:26 24° 169° (S) 1,327 4.2 -14.9°
